Waupaca, WI

4:20 PM CST on November 11, 2019 (GMT -0600)
Waupaca Municipal

Weather History for KPCZ - September, 2019

Change the Weather History Date:

Thursday, September 26, 2019

  Actual Average Record
Temperature  
Mean Temperature 58 °F -  
Max Temperature 69 °F 67 °F 83 °F (1974)
Min Temperature 46 °F 44 °F 29 °F (1966)
Degree Days  
Heating Degree Days 8    
Growing Degree Days 8 (Base 50)    
Moisture  
Dew Point 45 °F    
Average Humidity 64    
Maximum Humidity 92    
Minimum Humidity 33    
Precipitation  
Precipitation 0.00 in - - ()
Sea Level Pressure  
Sea Level Pressure 29.87 in    
Wind  
Wind Speed 6 mph (WSW)    
Max Wind Speed 18 mph    
Max Gust Speed 24 mph    
Visibility 10 miles    
Events      
Averages and records for this station are not official NWS values.
T = Trace of Precipitation, MM = Missing Value Source: NWS Daily Summary

Daily Weather History Graph

Daily Weather History Graph

Search for Another Location

Airport or City:

Astronomy

Sep. 26, 2019 Rise Set
Actual Time 6:47 AM CDT 6:46 PM CDT
Civil Twilight 6:18 AM CDT 7:15 PM CDT
Nautical Twilight 5:44 AM CDT 7:49 PM CDT
Astronomical Twilight 5:10 AM CDT 8:23 PM CDT
Moon 3:44 AM CDT (9/26) 6:07 PM CDT (9/26)
Length of Visible Light 12h 56m
Length of Day
11h 58m
Waning Crescent, 6% of the Moon is Illuminated
Sep 26
Waning Crescent
Sep 28
New
Oct 5
First Quarter
Oct 13
Full
Oct 21
Last Quarter

Hourly Weather History & Observations

Time (CDT) Temp. Dew Point Humidity Pressure Visibility Wind Dir Wind Speed Gust Speed Precip Events Conditions
12:15 AM 57.9 °F 46.8 °F 66% 29.81 in 10.0 mi West 8.1 mph - N/A   Clear
12:35 AM 56.7 °F 46.9 °F 70% 29.81 in 10.0 mi WSW 6.9 mph - N/A   Clear
12:55 AM 56.3 °F 46.6 °F 70% 29.81 in 10.0 mi West 5.8 mph - N/A   Clear
1:15 AM 55.8 °F 46.2 °F 70% 29.82 in 10.0 mi West 6.9 mph - N/A   Clear
1:35 AM 55.4 °F 45.5 °F 69% 29.82 in 10.0 mi West 5.8 mph - N/A   Clear
1:55 AM 53.8 °F 45.5 °F 74% 29.82 in 10.0 mi West 5.8 mph - N/A   Clear
2:15 AM 53.4 °F 46.2 °F 77% 29.82 in 10.0 mi West 4.6 mph - N/A   Clear
2:35 AM 52.3 °F 46.0 °F 79% 29.82 in 10.0 mi WSW 5.8 mph - N/A   Clear
2:55 AM 52.2 °F 45.5 °F 78% 29.82 in 10.0 mi West 4.6 mph - N/A   Clear
3:15 AM 51.4 °F 45.5 °F 80% 29.82 in 10.0 mi SW 3.5 mph - N/A   Clear
3:35 AM 50.9 °F 45.0 °F 80% 29.82 in 10.0 mi WSW 3.5 mph - N/A   Clear
3:55 AM 50.0 °F 44.8 °F 82% 29.82 in 10.0 mi Calm Calm - N/A   Clear
4:15 AM 48.6 °F 44.8 °F 87% 29.82 in 10.0 mi Calm Calm - N/A   Clear
4:35 AM 47.3 °F 44.2 °F 89% 29.83 in 10.0 mi Calm Calm - N/A   Clear
4:55 AM 47.3 °F 43.9 °F 88% 29.84 in 10.0 mi Calm Calm - N/A   Clear
5:15 AM 46.4 °F 43.7 °F 90% 29.84 in 10.0 mi Calm Calm - N/A   Clear
5:35 AM 46.8 °F 44.4 °F 92% 29.85 in 10.0 mi SSW 3.5 mph - N/A   Clear
5:55 AM 47.3 °F 45.0 °F 92% 29.85 in 10.0 mi SW 5.8 mph - N/A   Clear
6:15 AM 47.7 °F 45.0 °F 90% 29.86 in 10.0 mi SW 5.8 mph - N/A   Clear
6:35 AM 47.3 °F 45.0 °F 92% 29.87 in 10.0 mi SW 4.6 mph - N/A   Clear
6:55 AM 47.3 °F 45.0 °F 92% 29.88 in 10.0 mi Calm Calm - N/A   Clear
7:15 AM 48.4 °F 45.9 °F 91% 29.88 in 10.0 mi WSW 4.6 mph - N/A   Clear
7:35 AM 50.0 °F 46.2 °F 87% 29.89 in 10.0 mi SW 3.5 mph - N/A   Clear
7:55 AM 51.3 °F 46.4 °F 83% 29.90 in 10.0 mi WSW 4.6 mph - N/A   Clear
8:55 AM 55.4 °F 46.4 °F 72% 29.91 in 10.0 mi WSW 6.9 mph - N/A   Clear
9:15 AM 56.7 °F 46.6 °F 69% 29.92 in 10.0 mi WSW 8.1 mph - N/A   Clear
9:35 AM 57.7 °F 45.9 °F 65% 29.93 in 10.0 mi West 6.9 mph - N/A   Clear
9:55 AM 58.6 °F 45.3 °F 61% 29.94 in 10.0 mi West 9.2 mph - N/A   Clear
10:15 AM 59.5 °F 44.6 °F 58% 29.94 in 10.0 mi West 6.9 mph - N/A   Clear
10:35 AM 61.0 °F 44.6 °F 55% 29.93 in 10.0 mi West 6.9 mph - N/A   Clear
10:55 AM - - N/A% - - North - - N/A   Unknown
11:15 AM 63.1 °F 42.4 °F 47% 29.93 in 10.0 mi West 8.1 mph - N/A   Clear
11:35 AM 64.0 °F 41.0 °F 43% 29.93 in 10.0 mi West 8.1 mph 17.3 mph N/A   Clear
11:55 AM 64.6 °F 41.4 °F 43% 29.92 in 10.0 mi West 11.5 mph - N/A   Clear
12:15 PM 65.8 °F 40.6 °F 40% 29.92 in 10.0 mi WSW 10.4 mph - N/A   Clear
12:35 PM 66.6 °F 38.7 °F 36% 29.93 in 10.0 mi West 11.5 mph 24.2 mph N/A   Clear
12:55 PM 66.9 °F 39.4 °F 36% 29.92 in 10.0 mi West 15.0 mph - N/A   Clear
1:15 PM 67.5 °F 39.0 °F 35% 29.91 in 10.0 mi WSW 18.4 mph 24.2 mph N/A   Clear
1:35 PM 67.5 °F 38.7 °F 35% 29.91 in 10.0 mi WSW 13.8 mph 23.0 mph N/A   Clear
1:55 PM 68.4 °F 38.1 °F 33% 29.90 in 10.0 mi West 13.8 mph 18.4 mph N/A   Clear
2:15 PM 67.8 °F 39.4 °F 35% 29.90 in 10.0 mi West 13.8 mph 20.7 mph N/A   Scattered Clouds
2:35 PM 67.8 °F 40.6 °F 37% 29.90 in 10.0 mi West 12.7 mph - N/A   Scattered Clouds
2:55 PM 68.9 °F 39.2 °F 34% 29.90 in 10.0 mi WSW 15.0 mph 21.9 mph N/A   Clear
3:15 PM 69.3 °F 39.7 °F 34% 29.89 in 10.0 mi West 11.5 mph 18.4 mph N/A   Scattered Clouds
3:35 PM 68.7 °F 39.4 °F 34% 29.89 in 10.0 mi WSW 11.5 mph - N/A   Clear
3:55 PM 68.0 °F 38.5 °F 34% 29.88 in 10.0 mi WSW 13.8 mph - N/A   Clear
4:35 PM 68.4 °F 37.9 °F 33% 29.87 in 10.0 mi West 5.8 mph - N/A   Clear
4:55 PM 67.5 °F 40.1 °F 37% 29.87 in 10.0 mi West 5.8 mph - N/A   Clear
5:15 PM 66.2 °F 41.4 °F 40% 29.86 in 10.0 mi WSW 6.9 mph - N/A   Clear
5:35 PM 65.8 °F 42.8 °F 43% 29.87 in 10.0 mi SW 6.9 mph - N/A   Clear
5:55 PM 64.8 °F 44.1 °F 47% 29.87 in 10.0 mi WSW 5.8 mph - N/A   Clear
6:15 PM 64.0 °F 45.0 °F 50% 29.87 in 10.0 mi SW 3.5 mph - N/A   Clear
6:35 PM 63.1 °F 45.9 °F 53% 29.86 in 10.0 mi SW 3.5 mph - N/A   Clear
6:55 PM 62.2 °F 46.6 °F 57% 29.86 in 10.0 mi SW 4.6 mph - N/A   Clear
7:15 PM 60.3 °F 47.8 °F 64% 29.87 in 10.0 mi Calm Calm - N/A   Clear
7:35 PM 59.0 °F 49.1 °F 70% 29.86 in 10.0 mi Calm Calm - N/A   Clear
7:55 PM 59.4 °F 49.1 °F 69% 29.86 in 10.0 mi Calm Calm - N/A   Clear
8:15 PM 58.6 °F 49.6 °F 72% 29.85 in 10.0 mi Calm Calm - N/A   Scattered Clouds
8:35 PM 59.0 °F 49.1 °F 70% 29.87 in 10.0 mi SW 3.5 mph - N/A   Scattered Clouds
8:55 PM 58.5 °F 49.8 °F 73% 29.86 in 10.0 mi Calm Calm - N/A   Mostly Cloudy
9:15 PM 58.6 °F 49.6 °F 72% 29.86 in 10.0 mi South 3.5 mph - N/A   Overcast
9:35 PM 58.1 °F 51.3 °F 78% 29.86 in 10.0 mi Calm Calm - N/A   Overcast
9:55 PM 58.3 °F 50.0 °F 74% 29.86 in 10.0 mi Calm Calm - N/A   Overcast
10:15 PM 58.6 °F 49.8 °F 72% 29.84 in 10.0 mi SSE 3.5 mph - N/A   Overcast
10:35 PM 58.3 °F 49.8 °F 73% 29.83 in 10.0 mi South 3.5 mph - N/A   Overcast
10:55 PM 58.6 °F 49.6 °F 72% 29.82 in 10.0 mi South 4.6 mph - N/A   Overcast
11:15 PM 59.0 °F 49.1 °F 70% 29.82 in 10.0 mi South 3.5 mph - N/A   Overcast
11:35 PM 59.2 °F 49.1 °F 69% 29.83 in 10.0 mi Calm Calm - N/A   Overcast
11:55 PM 58.6 °F 49.1 °F 71% 29.83 in 10.0 mi Calm Calm - N/A   Overcast